SCP
0 0 0 0 0 0 0 0 0 0 0 0 0 0 0 0 0 0 0 0 0 0 0 0 0 0 0 0 0 0 0 0 0 0 0 0 0 0 0 0 0 0 0 0 0 0 0 0 0
0 0 0 0 0 0 0 0 0 0 0 0 0 0 0 0 0 0 0 0 0 0 0 0 0 0 0 0 0 0 0 0 0 0 0 0 0 0 0 0 0 0 0 0 0 0 0 0 0
0 0 0 0 0 0 0 0 0 0 0 0 0 0 0 0 0 0 0 0 0 0 0 1 1 1 1 0 0 0 0 0 0 0 0 0 0 0 0 0 0 0 0 0 0 0 0 0 0
0 0 0 0 0 0 0 0 0 0 0 0 0 0 0 0 0 0 0 0 0 0 1 1 1 1 1 0 0 0 0 0 0 0 0 0 0 0 0 0 0 0 0 0 0 0 0 0 0
0 0 0 0 0 0 0 0 0 0 0 0 0 0 0 0 0 0 0 0 1 1 1 1 1 1 1 1 0 0 0 0 0 0 0 0 0 0 0 0 0 0 0 0 0 0 0 0 0
0 0 0 0 0 0 0 0 0 0 0 0 0 0 0 0 0 0 0 1 1 1 1 1 1 1 1 1 1 0 0 0 0 0 0 0 0 0 0 0 0 0 0 0 0 0 0 0 0
0 0 0 0 0 0 0 0 0 0 0 0 0 0 0 0 0 0 1 1 1 1 1 1 1 1 1 1 1 0 0 0 0 0 0 0 0 0 0 0 0 0 0 0 0 0 0 0 0
0 0 0 0 0 0 0 0 0 0 0 0 0 0 0 0 0 1 1 1 1 1 1 1 1 1 1 1 1 0 0 0 0 0 0 0 0 0 0 0 0 0 0 0 0 0 0 0 0
0 0 0 0 0 0 0 0 0 0 0 0 0 0 0 0 0 1 1 1 1 1 1 1 1 1 1 1 1 0 0 0 0 0 0 0 0 0 0 0 0 0 0 0 0 0 0 0 0
0 0 0 0 0 0 0 0 0 0 0 0 0 0 0 0 0 1 1 1 1 1 1 1 1 1 1 1 1 0 0 0 0 0 0 0 0 0 0 0 0 0 0 0 0 0 0 0 0
0 0 0 0 0 0 0 0 0 0 0 0 0 0 0 0 0 1 1 1 1 1 1 1 1 1 1 1 1 1 0 0 0 0 0 0 0 0 0 0 0 0 0 0 0 0 0 0 0
0 0 0 0 0 0 0 0 0 0 0 0 0 0 0 0 0 0 1 1 1 1 1 0 0 0 1 1 1 1 0 0 0 0 0 0 0 0 0 0 0 0 0 0 0 0 0 0 0
0 0 0 0 0 0 0 0 0 0 0 0 0 0 0 0 0 0 0 1 1 1 1 1 0 0 1 1 1 1 1 0 0 0 0 0 0 0 0 0 0 0 0 0 0 0 0 0 0
0 0 0 0 0 0 0 0 0 0 0 0 0 0 0 0 0 0 0 0 1 1 1 1 0 0 0 1 1 1 1 0 0 0 0 0 0 0 0 0 0 0 0 0 0 0 0 0 0
0 0 0 0 0 0 0 0 0 0 0 0 0 0 0 0 0 0 0 0 0 0 1 1 1 0 0 0 1 1 1 0 0 0 0 0 0 0 0 0 0 0 0 0 0 0 0 0 0
0 0 0 0 0 0 0 0 0 0 0 0 0 0 0 0 0 0 0 0 0 0 0 1 1 0 0 0 0 1 1 0 0 0 0 0 0 0 0 0 0 0 0 0 0 0 0 0 0
0 0 0 0 0 0 0 0 0 0 0 0 0 0 0 0 0 0 0 0 0 0 0 0 0 0 0 0 0 0 0 0 0 0 0 0 0 0 0 0 0 0 0 0 0 0 0 0 0
0 0 0 0 0 0 0 0 0 0 0 0 0 0 0 0 0 0 0 0 0 0 0 0 0 0 0 0 0 0 0 0 0 0 0 0 0 0 0 0 0 0 0 0 0 0 0 0 0
0 0 0 0 0 0 0 0 0 0 0 0 0 0 0 0 0 0 0 0 0 0 0 0 0 0 0 0 0 0 0 0 0 0 0 0 0 0 0 0 0 0 0 0 0 0 0 0 0
0 0 0 0 0 0 0 0 0 0 0 0 0 0 0 0 0 0 0 0 0 0 0 0 0 0 0 0 0 0 0 0 0 0 0 0 0 0 0 0 0 0 0 0 0 0 0 0 0
0 0 0 0 0 0 0 0 0 0 0 0 0 0 0 0 0 0 0 0 0 0 0 0 0 0 0 0 0 0 0 0 0 0 0 0 0 0 0 0 0 0 0 0 0 0 0 0 0
0 0 0 0 0 0 0 0 0 0 0 0 0 0 0 0 0 0 0 0 0 0 0 0 0 0 0 0 0 0 0 0 0 0 0 0 0 0 0 0 0 0 0 0 0 0 0 0 0
0 0 0 0 0 0 0 0 0 0 0 0 0 0 0 0 0 0 0 0 0 0 0 0 0 0 0 0 0 0 0 0 0 0 0 0 0 0 0 0 0 0 0 0 0 0 0 0 0
0 0 0 0 0 0 0 0 0 0 0 0 0 0 0 0 0 0 0 0 0 0 0 0 0 0 0 0 0 0 0 0 0 0 0 0 0 0 0 0 0 0 0 0 0 0 0 0 0
0 0 0 0 0 0 0 0 0 0 0 0 0 0 0 0 0 0 0 0 0 0 0 0 0 0 0 0 0 0 0 0 0 0 0 0 0 0 0 0 0 0 0 0 0 0 0 0 0
0 0 0 0 0 0 0 0 0 0 0 0 0 0 0 0 0 0 0 0 0 0 0 0 0 0 0 0 0 0 0 0 0 0 0 0 0 0 0 0 0 0 0 0 0 0 0 0 0
0 0 0 0 0 0 0 0 0 0 0 0 0 0 0 0 0 0 0 0 0 0 0 0 0 0 0 0 0 0 0 0 0 0 0 0 0 0 0 0 0 0 0 0 0 0 0 0 0
0 0 0 0 0 0 0 0 0 0 0 0 0 0 0 0 0 0 0 0 0 0 0 0 0 0 0 0 0 0 0 0 0 0 0 0 0 0 0 0 0 0 0 0 0 0 0 0 0
0 0 0 0 0 0 0 0 0 0 0 0 0 0 0 0 0 0 0 0 0 0 0 0 0 0 0 0 0 0 0 0 0 0 0 0 0 0 0 0 0 0 0 0 0 0 0 0 0
0 0 0 0 0 0 0 0 0 0 0 0 0 0 0 0 0 0 0 0 0 0 0 0 0 0 0 0 0 0 0 0 0 0 0 0 0 0 0 0 0 0 0 0 0 0 0 0 0
Wind_Speed
4 3 3 4 6 4 5 6 4 3 4 3 3 5 6 7 6 4 1 7 10 11 10 13 14 14 13 13 13 13 13 12 12 13 13 13 13 12 12 12 12 12 12 13 14 14 14 14 14
1 2 5 5 5 3 7 6 6 6 4 2 2 2 2 2 1 2 3 5 11 11 10 11 14 14 14 13 13 13 13 12 12 12 12 12 12 12 12 11 11 12 12 12 13 14 13 13 14
1 3 5 4 4 8 7 5 8 4 3 2 2 1 2 2 2 3 3 8 10 9 8 11 14 14 14 13 13 13 12 12 12 12 11 12 11 11 11 10 11 12 12 12 12 13 13 13 13
3 4 5 3 8 8 5 3 3 2 1 1 3 1 1 1 2 3 7 10 10 9 8 10 14 14 14 13 13 13 12 12 12 11 11 11 11 11 11 11 11 11 11 11 12 12 12 12 12
4 4 2 3 8 6 5 3 2 3 2 2 3 3 1 3 2 6 9 10 10 8 7 9 13 14 14 13 12 12 12 12 12 11 11 11 11 11 11 11 11 11 11 11 11 11 12 12 12
4 4 3 7 9 5 4 3 2 2 2 2 4 3 1 1 4 7 9 8 7 8 7 8 12 12 13 13 12 11 11 11 11 11 11 11 11 11 11 11 11 10 10 10 10 11 11 11 12
4 4 6 6 5 5 4 4 4 4 4 4 5 4 1 1 4 7 8 7 6 7 7 6 7 8 10 11 10 11 11 10 10 10 10 10 10 10 10 10 10 10 10 10 10 11 11 11 11
4 4 4 5 6 6 3 3 3 6 5 2 5 6 5 4 6 7 7 7 6 5 5 6 6 6 6 6 9 9 9 9 9 9 9 8 9 9 9 8 9 9 9 9 9 10 11 11 11
3 2 8 8 7 5 2 2 1 1 2 1 2 3 3 7 9 9 7 6 6 5 4 5 6 5 5 5 7 7 8 8 8 7 8 7 5 5 5 6 8 9 9 9 9 10 10 10 10
3 6 10 5 4 3 2 2 2 1 1 1 0 1 4 8 10 11 10 10 9 8 6 5 6 6 5 5 4 4 4 5 5 4 5 4 4 4 5 6 8 8 8 8 9 9 9 7 4
4 7 5 4 3 2 2 2 2 3 4 6 5 5 7 8 9 10 10 10 9 9 7 6 5 6 6 4 4 3 3 3 4 5 5 4 4 3 4 3 4 5 6 5 6 5 4 4 3
3 5 3 4 3 3 3 2 2 5 6 4 5 8 9 10 10 10 10 9 8 8 7 6 5 5 6 5 4 4 3 3 3 4 5 5 3 3 3 2 3 3 3 4 3 3 4 4 4
5 5 4 4 4 4 4 5 5 6 5 2 3 7 10 10 9 8 6 7 7 8 7 7 6 6 6 5 4 4 3 4 4 3 4 5 4 4 3 3 3 3 3 3 4 4 4 4 4
4 4 5 5 6 4 5 7 5 8 3 3 4 7 8 9 9 6 6 7 7 8 7 6 7 6 5 5 4 4 4 4 4 3 4 5 4 4 4 4 3 3 3 3 4 4 4 3 3
1 3 6 5 5 4 3 8 9 8 3 4 5 6 6 6 6 8 8 8 8 8 7 7 7 6 6 6 5 4 4 4 4 4 4 5 5 5 4 4 3 3 3 4 4 4 4 4 3
0 2 4 4 3 4 4 11 7 3 4 5 5 5 5 5 6 6 6 6 7 7 7 7 6 6 6 5 5 4 4 4 4 4 4 5 5 5 5 4 4 3 4 4 4 4 4 3 3
1 3 5 6 3 3 5 8 5 2 3 4 4 4 4 4 4 4 5 6 7 7 7 7 6 7 6 5 4 4 4 4 4 4 4 5 5 6 5 4 4 4 4 4 4 3 3 4 3
5 4 4 6 3 3 5 6 6 3 2 3 4 3 3 4 5 4 4 5 6 6 7 7 6 6 6 4 4 3 3 3 3 3 4 5 5 6 5 4 5 5 4 4 4 4 3 3 3
4 4 6 7 5 3 6 7 8 4 2 2 3 3 3 3 3 1 2 3 5 5 6 7 7 6 5 4 5 5 4 3 3 3 4 5 5 6 5 4 5 5 4 5 5 4 4 3 3
5 5 6 6 5 4 5 8 7 3 3 3 3 3 3 3 2 0 1 2 3 5 6 7 7 7 6 5 4 4 4 3 3 3 4 5 6 6 5 5 5 5 5 5 5 5 3 2 2
7 7 6 6 7 4 2 6 5 3 1 0 2 2 2 2 2 2 1 2 3 3 5 6 6 7 6 5 4 4 3 2 2 3 3 4 5 6 6 6 5 5 5 6 6 6 5 4 2
8 4 5 5 3 4 3 5 4 2 2 2 2 2 2 1 1 1 2 2 2 2 3 4 5 5 5 6 6 7 6 5 4 4 4 4 5 6 6 6 6 6 5 6 6 5 4 6 4
5 5 5 5 4 3 2 3 5 1 3 4 3 2 2 1 0 0 2 2 2 1 2 3 4 4 5 5 6 6 5 3 3 3 4 4 4 5 5 6 6 6 5 6 6 5 4 4 4
2 2 1 1 2 4 4 4 4 2 3 4 3 3 2 2 2 2 2 2 2 2 2 2 4 3 3 4 5 6 6 5 5 4 5 4 3 3 5 5 5 5 5 6 6 6 6 5 4
2 2 1 0 2 5 2 3 3 3 4 2 2 2 3 3 3 3 3 3 2 2 2 2 3 3 2 3 4 5 6 7 7 6 5 5 3 2 5 5 5 5 5 5 5 6 6 6 6
3 2 3 3 3 2 1 3 3 4 6 4 3 3 3 4 4 4 3 2 2 2 2 2 3 3 3 3 3 3 4 4 4 5 4 5 4 4 4 5 5 5 6 6 5 4 5 5 5
1 2 2 1 0 1 1 3 5 7 9 7 6 5 5 4 4 4 4 4 3 2 2 1 2 2 2 2 2 3 3 3 4 4 4 4 3 3 4 5 5 5 5 6 6 4 5 5 5
1 1 1 1 2 2 1 1 3 7 8 8 6 5 5 5 5 5 4 5 4 3 2 2 2 2 1 1 2 2 2 2 3 3 4 3 3 4 5 5 4 5 4 5 5 4 4 5 4
4 3 1 0 1 2 1 2 2 4 5 5 5 4 4 4 4 4 5 5 5 5 4 3 3 2 1 1 1 1 1 1 2 3 3 4 3 4 5 5 5 5 5 5 5 4 5 5 4
2 2 1 1 1 1 1 2 4 4 4 4 5 6 5 5 4 4 4 5 6 6 5 4 3 2 1 0 1 2 1 1 2 2 3 3 4 4 5 5 5 5 5 5 6 5 5 5 5
Wind_Direction
358 33 65 57 58 56 233 235 217 220 220 214 170 159 167 169 170 199 141 136 135 144 154 153 149 146 142 138 133 130 128 125 124 124 123 122 119 117 116 113 111 109 108 106 105 103 102 100 99
9 54 57 64 107 201 250 230 215 215 203 149 118 122 136 212 198 131 136 149 141 145 149 150 148 146 143 140 137 135 132 128 125 126 125 122 120 118 116 115 112 110 106 104 105 104 104 103 102
64 56 86 92 163 200 224 219 216 233 219 171 135 121 163 192 167 165 167 148 138 142 146 150 149 147 145 143 141 139 136 132 128 126 125 123 120 119 117 114 113 109 104 104 105 105 105 105 104
79 55 63 114 223 226 218 228 194 200 232 186 142 129 256 328 187 169 140 141 138 140 143 150 148 147 145 144 142 141 139 137 131 127 124 124 124 121 117 113 109 108 106 106 107 107 107 106 107
62 87 109 233 240 243 239 248 203 188 195 180 142 156 264 344 89 128 137 141 143 141 142 149 149 148 146 145 142 141 141 138 134 129 125 126 125 122 117 113 110 108 108 109 110 110 109 108 108
69 89 159 227 240 249 248 224 188 201 207 171 147 147 230 42 124 138 139 139 141 142 141 146 150 148 147 146 142 140 140 138 134 132 128 127 124 120 117 115 114 112 111 110 113 113 113 112 109
128 141 203 219 242 252 235 192 188 192 209 209 165 143 221 172 143 136 131 129 130 137 138 141 145 145 145 143 142 141 138 134 131 129 124 122 119 118 117 115 114 114 115 111 114 115 113 111 109
142 141 212 220 222 246 226 187 197 184 212 186 154 159 197 188 138 126 121 123 128 132 139 140 136 136 138 140 140 138 135 132 128 122 117 114 114 113 110 111 111 111 113 113 112 114 113 109 107
109 154 223 215 202 236 226 198 254 202 150 158 197 191 195 137 136 134 133 135 147 147 145 144 140 136 134 137 137 133 131 127 121 116 113 109 107 106 102 103 107 108 108 111 113 113 111 105 101
147 213 229 214 203 226 240 211 209 143 172 219 302 34 119 137 151 157 162 167 169 170 166 153 149 146 141 139 131 126 121 121 116 115 115 108 107 103 102 97 98 99 98 102 103 102 105 99 93
189 222 245 254 254 258 256 258 231 169 225 218 197 169 152 156 166 172 174 176 177 171 167 161 158 153 147 139 134 126 120 118 117 121 119 114 107 103 94 97 93 92 91 88 90 84 85 94 98
224 248 252 274 294 287 265 272 259 220 234 234 191 165 164 171 179 184 182 179 173 170 171 166 158 156 152 145 141 138 133 133 133 133 129 125 119 112 112 108 105 99 98 97 91 93 93 93 94
239 259 262 277 294 283 283 266 262 258 261 257 180 168 175 184 189 187 179 175 172 175 173 172 163 161 157 148 149 145 144 142 140 136 137 135 133 132 127 122 113 108 108 111 106 103 104 99 93
240 270 282 273 268 270 260 268 251 256 229 191 185 193 192 192 192 183 177 179 180 181 177 171 167 163 157 155 154 153 151 144 140 144 147 144 140 140 137 127 122 121 121 119 117 115 112 103 102
262 285 291 266 245 251 249 268 242 248 201 200 208 210 210 207 195 195 192 186 186 183 176 172 170 161 160 160 160 156 155 150 151 153 154 150 144 144 140 136 134 135 127 118 111 103 101 102 96
346 259 267 272 227 234 202 254 265 249 192 215 223 219 218 223 210 206 198 188 183 180 177 176 172 165 164 166 162 159 158 155 157 154 154 154 149 148 143 142 145 143 131 126 125 119 110 104 100
153 236 252 285 237 222 208 254 291 281 193 220 231 226 223 236 235 217 203 191 185 184 179 176 172 170 169 168 162 159 155 157 157 151 151 156 154 152 147 146 147 146 134 132 136 124 121 121 110
223 237 245 256 264 229 237 260 291 292 218 232 236 234 238 242 245 222 202 189 181 178 176 176 171 171 165 158 153 147 145 153 151 153 155 157 156 153 146 144 147 148 141 137 133 129 111 121 122
223 230 261 267 276 257 245 261 278 288 245 244 243 233 241 258 278 225 179 170 167 169 174 177 171 170 164 165 169 166 169 167 162 162 159 160 158 156 151 149 152 154 155 153 143 132 124 110 117
252 250 263 287 290 268 251 261 270 267 231 218 238 237 241 268 302 232 137 142 164 176 180 180 178 174 174 177 177 166 157 163 166 160 161 165 162 160 159 156 160 160 154 152 151 142 136 135 142
259 235 243 265 312 294 247 276 262 267 267 306 261 248 248 228 235 229 170 162 158 173 183 184 182 176 173 163 150 130 120 120 142 162 170 173 170 166 164 165 163 165 166 168 169 162 153 158 167
266 250 254 263 268 269 216 260 276 261 318 313 288 275 263 266 258 220 156 151 164 193 180 173 173 169 168 163 160 158 165 172 178 173 172 172 175 173 170 168 168 170 173 172 177 173 166 160 167
254 276 260 248 221 265 242 233 287 353 306 291 291 297 301 323 44 125 140 157 150 151 152 160 154 154 159 167 168 166 165 166 152 152 160 172 179 179 174 172 172 175 176 177 177 174 173 172 171
267 328 346 125 153 241 224 193 287 322 267 299 324 343 345 29 44 39 50 85 90 95 111 126 135 141 152 158 165 171 167 159 154 162 171 178 179 183 179 178 180 182 181 181 183 182 181 185 178
20 96 70 197 205 238 171 175 251 326 332 314 318 341 357 35 50 46 43 62 74 90 110 125 138 139 141 151 160 172 174 171 175 177 178 177 174 185 191 185 185 185 185 182 179 181 186 184 181
266 187 179 196 212 268 134 210 256 344 349 4 21 31 29 37 39 34 31 51 78 88 100 122 146 152 148 157 168 172 168 172 180 181 179 185 188 188 186 188 188 186 183 179 178 179 186 181 184
302 251 244 166 172 206 251 296 314 357 3 9 21 28 20 21 31 30 24 29 40 57 73 119 141 137 148 164 165 162 172 173 178 178 177 185 182 178 176 185 183 183 179 177 174 179 183 180 186
322 300 55 143 170 220 252 288 316 344 348 352 5 10 1 12 20 21 23 21 24 33 38 60 81 94 111 143 157 165 183 189 177 169 173 179 179 172 171 179 179 178 178 176 172 173 176 175 181
2 360 0 220 245 174 204 283 340 341 339 340 344 359 360 10 17 15 17 17 23 33 40 46 47 52 60 103 137 137 163 175 168 165 177 179 179 174 177 179 178 179 177 173 170 173 168 173 176
27 358 358 157 297 318 149 277 344 352 354 1 358 358 6 11 19 22 24 27 28 28 28 33 32 32 26 65 146 152 150 146 163 176 178 172 175 181 179 175 176 179 179 176 174 174 173 177 179